Wind_Speed
7 7 8 8 8 9 10 11 11 11 12 12 14 14 14 14 14 15 15 14 15 15 16 15 15 14 14 14 15 15 15 16 16 17 17 17 18 18 19 20 21 22 22 23
8 9 9 9 9 10 11 12 12 12 12 13 13 14 14 14 14 15 15 14 15 15 14 14 14 14 14 14 14 14 15 15 16 16 17 17 18 18 19 21 21 21 21 23
9 10 10 11 10 11 13 12 12 13 13 14 14 14 15 15 15 15 15 15 15 14 13 13 13 13 13 13 13 13 14 15 16 17 17 17 18 19 19 20 21 22 22 24
11 12 12 12 12 13 14 14 14 14 14 15 15 14 14 14 14 15 15 15 14 14 13 12 13 12 12 12 12 13 14 15 16 16 17 18 18 19 20 21 21 22 22 24
12 13 13 14 14 14 15 15 14 14 15 15 15 14 14 15 15 14 14 14 14 14 14 14 13 12 12 12 12 13 14 14 15 15 16 17 18 19 20 20 21 22 23 24
13 14 14 15 14 15 15 15 15 15 15 14 15 14 15 16 15 14 14 14 14 14 14 14 13 12 12 11 12 12 13 14 14 15 16 17 18 18 19 20 21 22 22 23
14 15 15 16 15 15 15 16 16 16 16 15 16 15 16 16 15 15 14 14 14 14 14 14 13 12 12 11 12 13 13 14 14 15 15 17 17 18 19 20 21 21 22 23
16 16 16 16 16 16 16 17 17 17 17 16 16 16 16 16 15 15 15 14 14 14 14 13 12 12 12 12 12 13 13 13 14 15 16 17 17 18 19 20 21 21 22 24
17 17 17 17 16 16 17 17 18 18 18 17 16 15 15 14 14 14 14 13 13 13 13 13 12 11 12 12 12 13 13 13 14 14 15 16 18 18 19 20 21 21 22 23
18 17 17 17 17 17 18 18 19 18 18 17 16 15 15 15 15 14 14 13 13 13 12 12 11 11 11 11 12 12 12 12 13 14 15 16 17 18 19 20 21 22 23 24
19 18 18 19 18 18 19 18 18 17 17 16 15 15 16 15 15 14 14 13 12 12 12 11 10 10 10 11 10 11 11 12 13 13 14 15 16 17 19 20 21 22 23 24
20 20 20 19 20 20 19 19 18 17 17 15 15 15 16 16 15 15 14 13 13 12 11 11 10 10 10 9 10 10 10 12 12 12 13 14 16 18 19 20 20 22 23 24
21 21 20 20 20 20 20 19 18 17 16 16 15 15 15 16 16 15 14 13 12 11 11 10 10 9 9 9 10 10 11 12 12 12 13 14 16 17 18 19 20 22 23 25
21 22 21 21 21 20 20 19 18 17 16 16 16 16 15 15 15 14 13 12 11 10 10 10 9 9 9 9 10 10 11 12 12 12 13 15 16 17 17 18 20 21 23 24
22 22 22 22 22 21 20 19 18 17 16 16 16 15 15 14 14 13 12 11 10 10 9 9 9 9 9 10 10 10 10 11 12 12 13 15 15 15 16 18 20 21 23 24
22 23 23 22 22 21 20 20 18 17 16 16 16 15 14 13 13 13 12 11 10 9 9 8 8 9 9 10 10 9 10 11 12 13 14 15 15 15 16 18 20 21 23 25
22 22 22 22 21 21 20 19 18 17 16 16 15 14 13 13 13 12 11 10 10 9 8 8 9 8 8 9 9 10 10 11 12 13 14 15 15 16 17 18 20 21 22 24
23 22 22 21 20 20 19 18 17 16 16 15 15 14 13 12 12 11 10 10 9 9 9 9 8 7 8 8 9 10 10 11 12 13 13 14 15 16 17 18 19 21 22 24
23 22 22 21 20 20 19 18 18 17 16 16 15 14 13 12 11 11 10 9 8 8 8 8 8 8 8 9 10 10 10 10 12 12 13 14 14 15 17 18 19 21 22 23
23 23 22 21 20 20 19 19 18 17 17 16 15 14 14 13 11 11 11 10 9 9 8 8 8 8 9 9 9 9 10 11 11 12 12 13 14 15 17 18 19 20 21 22
24 23 22 21 21 20 20 20 19 17 16 16 16 15 14 13 12 11 11 10 9 9 9 9 8 8 9 9 9 10 10 11 11 12 12 13 14 15 17 18 19 20 21 22
24 23 23 22 22 21 21 20 19 18 17 16 16 15 15 14 13 12 11 10 9 9 9 9 9 9 9 9 9 10 11 11 12 12 13 14 14 16 17 18 19 20 21 22
23 24 23 23 22 22 21 20 19 18 18 17 17 16 15 14 14 13 12 11 10 10 10 9 9 9 9 9 10 10 11 11 12 13 13 14 14 15 16 17 18 19 20 22
23 23 24 23 22 22 22 21 19 19 18 18 17 16 15 15 14 13 12 12 11 11 10 9 9 9 9 9 10 10 11 12 12 13 13 13 14 15 16 17 18 19 20 21
25 25 24 24 24 23 22 22 21 20 19 19 18 17 16 15 14 13 13 12 12 11 10 10 10 10 10 10 10 11 12 12 12 13 13 13 13 14 15 16 17 18 19 20
26 26 25 24 24 23 23 23 22 22 21 20 19 17 17 16 15 14 13 13 12 12 12 12 11 11 11 11 11 11 12 12 12 13 13 13 14 14 15 16 17 17 19 20
26 26 26 25 24 23 23 23 22 22 22 21 20 18 17 17 16 15 14 14 13 13 13 12 12 12 12 12 12 12 12 13 13 13 13 13 13 14 15 16 16 17 18 20
Wind_Direction
323 320 322 323 325 322 322 322 318 316 314 314 310 311 307 308 309 309 309 311 309 308 310 310 310 309 308 310 312 314 316 318 319 321 321 319 318 320 318 319 319 320 321 322
317 318 317 316 315 317 318 321 317 313 311 310 308 307 305 306 308 307 307 310 310 311 312 314 314 314 311 310 312 314 317 320 321 322 322 321 321 321 321 323 323 323 324 324
314 317 318 315 316 315 315 314 311 309 310 310 309 307 306 308 308 307 308 309 311 316 315 316 315 316 315 313 313 316 318 321 323 324 325 324 324 324 326 327 326 325 324 326
311 313 309 309 309 308 309 309 308 307 307 311 310 310 310 310 310 308 307 310 315 318 318 318 317 317 318 315 316 318 321 322 323 324 326 326 327 329 331 330 328 327 327 329
310 310 311 314 316 316 314 310 310 310 310 309 308 306 305 308 310 307 307 310 312 314 315 316 315 316 318 317 316 318 320 322 325 328 328 328 330 333 336 335 332 331 331 332
305 306 308 313 317 316 313 312 311 313 313 311 310 306 306 310 308 307 307 307 308 309 310 313 314 315 317 318 317 320 322 326 327 330 330 333 337 339 340 339 338 338 337 336
301 304 308 311 312 310 309 312 312 315 312 311 311 310 308 309 307 308 308 306 305 306 308 310 312 313 315 317 319 323 325 327 328 331 336 339 341 341 341 342 342 342 340 340
297 301 301 304 303 304 305 309 311 311 309 308 310 312 310 307 307 308 306 304 304 305 306 308 308 309 312 316 320 323 327 328 330 335 339 342 343 343 343 344 345 345 344 345
288 292 294 298 303 305 305 308 311 312 310 308 310 312 314 311 309 308 307 304 304 303 304 304 303 305 310 314 317 321 326 329 333 337 341 343 345 345 346 347 347 347 347 348
283 284 287 291 295 300 302 304 308 310 312 308 307 308 310 309 310 309 308 308 306 304 303 304 302 307 310 312 315 319 325 328 332 336 341 344 346 348 348 349 349 350 350 350
284 284 286 289 294 296 299 303 306 309 310 310 305 304 306 308 309 307 306 307 306 305 304 303 305 308 309 312 315 320 325 329 332 335 340 343 346 347 349 350 351 352 352 352
280 283 283 284 288 291 295 300 302 304 304 304 304 303 305 307 309 306 302 304 304 303 303 304 304 306 308 308 312 319 325 329 332 335 339 341 343 346 348 350 352 354 354 354
278 280 282 283 286 289 292 295 298 298 298 298 301 300 302 305 306 302 300 300 300 299 299 301 303 304 307 308 310 316 322 326 328 332 336 339 342 346 348 350 353 354 355 355
275 278 280 282 284 287 290 293 294 294 294 294 297 299 301 303 302 301 301 299 298 297 297 297 299 301 302 303 307 313 319 323 326 330 334 338 341 345 349 350 351 353 355 356
274 277 278 279 281 284 287 291 291 290 291 293 294 295 298 300 300 299 299 297 296 295 296 295 296 298 301 303 306 311 317 322 326 328 332 336 340 342 345 348 351 354 356 357
273 274 275 275 277 281 284 286 286 285 287 288 289 290 292 296 297 296 294 293 290 288 288 286 292 298 303 307 308 312 317 321 325 330 334 337 339 341 343 347 351 354 356 357
271 271 273 274 276 279 281 279 278 279 281 284 286 288 290 292 293 292 291 291 288 285 280 280 291 296 301 306 307 311 316 321 327 332 334 336 337 339 344 348 350 352 353 354
270 270 272 273 274 275 277 275 272 272 276 280 284 286 286 287 286 288 289 288 286 280 275 281 289 291 300 307 309 312 318 322 326 330 333 335 336 339 341 343 346 348 351 352
268 268 270 270 271 271 270 271 270 268 270 273 278 282 281 281 282 283 283 283 278 277 277 281 284 293 303 308 310 314 315 316 321 327 334 338 339 339 340 342 344 345 347 350
266 266 266 267 268 268 268 267 266 266 267 269 269 273 276 276 275 276 276 275 276 277 280 283 290 299 305 309 312 313 316 318 320 327 333 336 337 338 340 342 344 345 347 349
263 262 262 263 264 265 265 265 264 263 263 264 264 265 267 267 267 268 271 272 275 277 280 283 288 295 300 303 306 310 313 318 323 329 332 334 336 339 341 344 346 349 350 351
257 256 258 260 262 263 262 261 261 260 258 259 260 261 260 260 261 263 265 268 270 273 277 282 285 288 293 297 302 308 312 317 324 328 330 332 335 338 341 344 347 349 350 350
256 254 256 258 259 259 258 257 257 257 257 257 257 257 256 254 257 259 260 262 265 269 275 279 280 282 288 293 298 304 310 315 319 322 325 329 332 336 339 342 344 345 347 349
256 254 254 255 257 255 253 253 253 254 255 255 255 254 252 250 250 252 256 261 263 263 267 270 273 282 289 295 300 303 307 312 315 318 323 326 328 333 337 340 342 344 346 348
254 252 252 253 253 251 250 249 249 250 252 252 251 250 249 247 247 250 255 260 261 259 263 267 271 279 287 292 296 300 305 309 313 316 318 320 324 328 332 336 340 343 345 347
252 251 251 250 248 247 247 248 248 248 250 251 249 247 246 246 245 249 253 257 260 258 259 262 266 276 282 287 292 299 303 305 308 310 312 315 320 326 329 332 336 338 340 343
251 251 250 247 246 246 244 244 243 244 245 246 245 242 242 242 244 246 248 254 255 253 255 259 266 274 281 285 290 296 300 302 306 308 309 313 318 323 326 329 333 335 337 339
Height
5817 5816 5814 5813 5811 5810 5808 5806 5804 5802 5800 5798 5796 5793 5791 5790 5788 5786 5784 5783 5782 5780 5778 5776 5775 5773 5772 5770 5768 5767 5765 5762 5760 5757 5755 5752 5750 5747 5744 5742 5738 5735 5732 5729
5816 5814 5813 5811 5810 5808 5806 5805 5802 5800 5799 5796 5794 5791 5789 5788 5786 5784 5782 5781 5779 5777 5775 5774 5772 5770 5768 5767 5766 5764 5762 5759 5757 5755 5752 5749 5747 5744 5741 5738 5735 5731 5728 5725
5815 5813 5811 5810 5808 5806 5804 5802 5800 5798 5797 5793 5791 5789 5787 5786 5784 5782 5780 5779 5777 5774 5773 5771 5769 5767 5766 5764 5763 5761 5759 5757 5754 5752 5749 5747 5744 5741 5738 5735 5731 5728 5724 5721
5813 5812 5809 5810 5806 5804 5802 5799 5797 5795 5793 5790 5788 5786 5784 5782 5781 5780 5778 5776 5774 5772 5770 5768 5767 5765 5763 5762 5760 5758 5757 5755 5752 5749 5747 5744 5741 5738 5735 5732 5728 5725 5721 5717
5811 5809 5807 5805 5803 5801 5799 5796 5794 5792 5790 5787 5785 5784 5782 5780 5778 5777 5775 5774 5772 5771 5769 5767 5765 5763 5761 5759 5758 5756 5755 5752 5750 5747 5745 5742 5739 5736 5732 5729 5725 5722 5718 5713
5808 5806 5804 5803 5801 5798 5797 5793 5791 5789 5787 5785 5783 5781 5779 5777 5776 5775 5773 5771 5770 5768 5766 5764 5763 5761 5759 5758 5756 5754 5753 5750 5748 5745 5743 5740 5737 5733 5730 5727 5723 5719 5715 5710
5805 5803 5801 5800 5798 5796 5795 5792 5789 5786 5784 5782 5780 5778 5776 5774 5773 5771 5770 5768 5767 5765 5764 5762 5760 5759 5758 5756 5755 5753 5750 5748 5746 5743 5740 5738 5735 5732 5728 5725 5721 5717 5713 5708
5802 5800 5800 5796 5794 5793 5791 5788 5785 5783 5781 5779 5778 5775 5773 5771 5770 5768 5767 5765 5764 5762 5761 5759 5758 5757 5756 5754 5753 5751 5749 5746 5744 5741 5739 5736 5733 5730 5727 5723 5719 5714 5710 5705
5799 5799 5795 5793 5791 5789 5786 5784 5782 5780 5778 5776 5775 5773 5771 5769 5767 5765 5764 5762 5761 5759 5758 5757 5755 5754 5753 5752 5751 5749 5747 5745 5743 5740 5738 5735 5732 5729 5725 5721 5717 5712 5708 5702
5794 5793 5791 5789 5787 5785 5783 5781 5779 5777 5775 5773 5771 5770 5769 5767 5765 5763 5761 5760 5758 5757 5755 5754 5753 5752 5751 5750 5748 5747 5745 5743 5741 5739 5737 5734 5731 5728 5724 5720 5715 5711 5706 5701
5789 5788 5786 5785 5783 5782 5780 5778 5776 5774 5772 5770 5768 5767 5766 5764 5762 5760 5759 5757 5756 5754 5753 5751 5750 5749 5748 5748 5747 5746 5744 5742 5740 5738 5736 5733 5730 5726 5722 5718 5714 5709 5704 5699
5785 5783 5782 5781 5779 5778 5776 5775 5773 5771 5769 5767 5766 5764 5763 5761 5759 5758 5756 5755 5753 5752 5751 5750 5749 5748 5747 5746 5745 5744 5743 5741 5739 5737 5734 5732 5728 5725 5721 5717 5712 5708 5703 5698
5779 5777 5777 5776 5774 5773 5772 5770 5769 5767 5766 5764 5763 5761 5760 5758 5756 5755 5753 5752 5751 5750 5749 5748 5747 5746 5745 5744 5743 5742 5741 5739 5737 5735 5733 5730 5727 5723 5720 5716 5711 5707 5702 5697
5772 5772 5771 5770 5769 5768 5767 5766 5765 5763 5762 5761 5759 5758 5757 5755 5753 5752 5751 5749 5748 5747 5747 5746 5745 5744 5744 5743 5742 5740 5739 5737 5735 5733 5731 5728 5725 5721 5718 5714 5711 5706 5701 5696
5766 5766 5765 5765 5764 5763 5762 5761 5760 5759 5758 5757 5756 5755 5753 5752 5751 5749 5748 5747 5746 5745 5744 5744 5743 5742 5741 5740 5739 5738 5737 5735 5734 5731 5729 5726 5723 5720 5717 5713 5709 5705 5700 5695
5759 5759 5759 5759 5758 5758 5757 5756 5756 5755 5754 5753 5752 5751 5750 5749 5748 5746 5745 5744 5743 5743 5742 5741 5741 5740 5739 5738 5737 5736 5735 5733 5732 5729 5727 5724 5721 5718 5715 5712 5708 5703 5699 5694
5752 5752 5752 5752 5752 5752 5751 5751 5750 5750 5749 5749 5748 5747 5747 5745 5744 5743 5742 5742 5741 5740 5740 5739 5739 5738 5737 5736 5735 5734 5733 5731 5730 5728 5725 5723 5720 5717 5714 5710 5706 5702 5698 5693
5745 5745 5745 5746 5746 5746 5745 5745 5745 5745 5745 5745 5744 5744 5743 5742 5741 5740 5740 5739 5738 5738 5737 5737 5736 5736 5735 5734 5733 5732 5731 5729 5728 5726 5724 5721 5718 5715 5712 5709 5705 5701 5697 5692
5738 5738 5739 5739 5739 5739 5739 5739 5739 5740 5740 5740 5740 5740 5739 5738 5738 5737 5737 5736 5736 5735 5735 5735 5734 5733 5733 5732 5731 5730 5729 5728 5726 5724 5722 5719 5717 5714 5710 5707 5703 5699 5695 5690
5731 5731 5732 5732 5732 5733 5733 5733 5734 5734 5735 5735 5735 5735 5735 5735 5734 5734 5734 5734 5733 5733 5733 5732 5732 5731 5731 5730 5729 5728 5727 5725 5724 5722 5720 5717 5715 5712 5709 5706 5702 5698 5694 5689
5724 5724 5725 5725 5726 5726 5727 5727 5728 5729 5729 5730 5730 5731 5731 5731 5731 5731 5731 5731 5731 5730 5730 5730 5730 5729 5729 5728 5727 5726 5725 5723 5721 5719 5717 5715 5713 5710 5707 5704 5700 5696 5692 5688
5716 5717 5718 5719 5719 5720 5720 5721 5722 5723 5724 5725 5725 5726 5726 5727 5727 5728 5728 5728 5728 5728 5728 5727 5727 5727 5726 5726 5725 5724 5722 5720 5719 5717 5715 5713 5711 5708 5705 5702 5699 5695 5691 5687
5708 5709 5711 5712 5712 5713 5714 5715 5716 5717 5718 5719 5720 5721 5722 5722 5723 5724 5724 5725 5725 5725 5725 5725 5724 5724 5723 5723 5722 5721 5719 5718 5716 5714 5713 5711 5708 5706 5703 5700 5697 5694 5690 5686
5700 5701 5702 5704 5705 5707 5708 5709 5710 5712 5713 5714 5715 5716 5717 5718 5719 5720 5720 5721 5721 5722 5722 5722 5722 5721 5721 5720 5719 5718 5717 5715 5713 5712 5710 5708 5706 5704 5701 5698 5695 5692 5688 5684
5692 5693 5694 5696 5698 5700 5701 5703 5704 5706 5707 5708 5710 5711 5712 5713 5715 5715 5716 5717 5717 5718 5718 5719 5719 5718 5718 5717 5716 5715 5714 5712 5711 5709 5707 5705 5703 5701 5699 5696 5693 5690 5686 5683
5683 5685 5686 5688 5690 5692 5694 5695 5698 5699 5701 5703 5704 5706 5707 5709 5710 5711 5712 5713 5713 5714 5714 5715 5715 5715 5714 5714 5713 5712 5711 5709 5707 5706 5704 5702 5701 5698 5696 5694 5691 5688 5684 5681
5675 5676 5678 5680 5682 5684 5686 5688 5691 5693 5694 5697 5699 5701 5702 5704 5705 5706 5707 5708 5709 5709 5710 5710 5711 5710 5710 5710 5709 5708 5707 5705 5704 5702 5701 5699 5698 5696 5693 5691 5688 5685 5682 5679